Tracking 19638 objects as of 20-May-2019
HD Live streaming from Space Station
objects crossing your sky now

ASIASAT 3S

Track ASIASAT 3S now!
ASIASAT 3S is classified as:


NORAD ID: 25657
Int'l Code: 1999-013A
Perigee: 35,776.3 km
Apogee: 35,811.1 km
Inclination: 4.0 °
Period: 1,436.1 minutes
Semi major axis: 42164 km
RCS: 25.1486 m2 (large)
Launch date: March 21, 1999
Source: Asia Satellite Telecommunications Company (ASIASAT) (AC)
Launch site: TYURATAM MISSILE AND SPACE COMPLEX (TTMTR)

28 C-band, 16 Ku-band; broadcasting, internet services, multimedia, telecommunications
aabbcc
Your satellite tracking list
Your tracking list is empty




NASA's NSSDC Master Catalog

Two Line Element Set (TLE):
1 25657U 99013A   19139.54953278 -.00000246  00000-0  00000+0 0  9995
2 25657   3.9539  74.7533 0004127 332.5026 173.6686  1.00272110 73898
Source of the keplerian elements: AFSPC